User: anonymous   Login
Location: Maiden_LMO
(35.5760°N, 81.2120°W)
Time: 20:59:12
(UTC-04:00)
Language:

Cosmos 2278 Rocket - Orbit

View from above orbital plane
View from above orbital plane
View from above satellite
View from above satellite

Ground track
Ground track

The orbit data is extracted from the following two-line orbital elements,

1 23088U 94023B   18111.14187124 +.00000286 +00000-0 +17326-3 0  9997
2 23088 071.0017 355.7031 0004048 322.3297 037.7541 14.14665965238824
Epoch (UTC): 21 April 2018 03:24:17
Eccentricity: 0.0004048
inclination: 71.0017°
perigee height: 840 km
apogee height: 846 km
right ascension of ascending node: 355.7031°
argument of perigee: 322.3297°
revolutions per day: 14.14665965
mean anomaly at epoch: 37.7541°
orbit number at epoch: 23882

The dashed part of the orbit path shows where the satellite is in the earth's shadow,  

DLR